GW0118 Weather Reports


time (UTC)temp
C
wind
direction
speed
KPH
gust
KPH
rain 1hr
cm
rain 24hr
cm
rain mn
cm
humidity
%
barometer
mb
20260905050109 18 0 0.0 0.0 0.00 0.00 0.00 46 1026.3
20260905044607 18 0 0.0 0.0 0.00 0.00 0.00 46 1026.4
20260905043103 20 0 0.0 0.0 0.00 0.00 0.00 43 1026.2
20260905041603 19 0 0.0 0.0 0.00 0.00 0.00 45 1026.2
20260905040106 19 0 0.0 0.0 0.00 0.00 0.00 44 1026.3
20260905034613 20 0 0.0 0.0 0.00 0.00 0.00 42 1026.4
20260905033111 20 0 0.0 0.0 0.00 0.00 0.00 41 1026.4
20260905031616 20 0 0.0 1.6 0.00 0.00 0.00 41 1026.3
20260905030107 21 0 0.0 0.0 0.00 0.00 0.00 39 1026.5
20260905024605 21 0 0.0 0.0 0.00 0.00 0.00 39 1026.5
20260905023137 21 0 0.0 0.0 0.00 0.00 0.00 38 1026.6
20260905021605 21 0 0.0 1.6 0.00 0.00 0.00 38 1026.6
20260905020106 21 0 0.0 1.6 0.00 0.00 0.00 38 1026.7
20260905014611 22 0 1.6 11.3 0.00 0.00 0.00 35 1026.7
20260905013105 21 100 3.2 9.7 0.00 0.00 0.00 39 1026.7
20260905011607 22 75 3.2 4.8 0.00 0.00 0.00 38 1026.7
20260905010112 22 0 0.0 0.0 0.00 0.00 0.00 37 1026.8
20260905004614 22 0 0.0 1.6 0.00 0.00 0.00 38 1026.9
20260905003103 21 77 0.0 0.0 0.00 0.00 0.00 41 1026.8
20260905001611 22 0 0.0 0.0 0.00 0.00 0.00 38 1026.8
20260905000125 22 0 0.0 0.0 0.00 0.00 0.00 38 1026.7
20260904234602 22 0 0.0 0.0 0.00 0.00 0.00 38 1026.7
20260904233105 23 0 0.0 0.0 0.00 0.00 0.00 36 1026.9
20260904231603 23 0 0.0 3.2 0.00 0.00 0.00 35 1026.8
20260904230105 22 55 0.0 3.2 0.00 0.00 0.00 37 1026.7
20260904224605 24 0 0.0 1.6 0.00 0.00 0.00 34 1026.7
20260904223102 24 0 0.0 1.6 0.00 0.00 0.00 33 1026.7
20260904221605 25 0 0.0 1.6 0.00 0.00 0.00 33 1026.6
20260904220120 25 0 0.0 4.8 0.00 0.00 0.00 31 1026.7
20260904214604 25 114 3.2 6.4 0.00 0.00 0.00 31 1026.7
20260904213101 26 63 1.6 4.8 0.00 0.00 0.00 30 1026.7
20260904211608 26 111 1.6 4.8 0.00 0.00 0.00 30 1026.8
20260904210118 26 73 1.6 6.4 0.00 0.00 0.00 30 1026.9
20260904204604 26 0 0.0 3.2 0.00 0.00 0.00 30 1026.9
20260904203111 26 97 3.2 9.7 0.00 0.00 0.00 29 1026.8
20260904201602 27 101 3.2 11.3 0.00 0.00 0.00 27 1026.6
20260904194612 27 84 0.0 3.2 0.00 0.00 0.00 26 1026.5
20260904193116 27 75 1.6 9.7 0.00 0.00 0.00 26 1026.3
20260904191601 28 132 0.0 4.8 0.00 0.00 0.00 25 1025.9
20260904190107 29 144 3.2 6.4 0.00 0.00 0.00 24 1025.6
20260904184621 30 139 0.0 1.6 0.00 0.00 0.00 24 1025.6
20260904183103 31 322 0.0 6.4 0.00 0.00 0.00 23 1025.5
20260904181610 31 25 4.8 11.3 0.00 0.00 0.00 21 1025.5
20260904180119 31 341 4.8 12.9 0.00 0.00 0.00 21 1025.5
20260904174617 32 342 4.8 14.5 0.00 0.00 0.00 21 1025.6
20260904173107 32 18 8.0 19.3 0.00 0.00 0.00 21 1025.5
20260904171607 32 345 8.0 19.3 0.00 0.00 0.00 20 1025.5
20260904170101 32 331 8.0 16.1 0.00 0.00 0.00 20 1025.3
20260904164603 32 347 9.7 25.7 0.00 0.00 0.00 20 1025.3
20260904163110 33 356 9.7 22.5 0.00 0.00 0.00 19 1025.4
20260904161605 33 357 9.7 24.1 0.00 0.00 0.00 19 1025.3
20260904160105 33 31 11.3 27.4 0.00 0.00 0.00 19 1025.3
20260904154600 33 15 11.3 20.9 0.00 0.00 0.00 19 1025.3
20260904153115 33 342 11.3 25.7 0.00 0.00 0.00 19 1025.5
20260904151603 33 352 19.3 35.4 0.00 0.00 0.00 19 1025.6
20260904144602 33 66 17.7 32.2 0.00 0.00 0.00 19 1025.6
20260904143103 33 32 27.4 43.5 0.00 0.00 0.00 19 1025.8
20260904141559 33 25 22.5 35.4 0.00 0.00 0.00 18 1026.0
20260904140104 33 45 20.9 33.8 0.00 0.00 0.00 18 1025.9
20260904134603 34 21 17.7 33.8 0.00 0.00 0.00 18 1026.0
20260904133114 35 342 14.5 24.1 0.00 0.00 0.00 18 1026.0
20260904131600 34 28 17.7 29.0 0.00 0.00 0.00 18 1025.9
20260904130105 34 197 8.0 17.7 0.00 0.00 0.00 18 1026.0
20260904124611 33 58 6.4 14.5 0.00 0.00 0.00 18 1026.2
20260904123115 33 344 9.7 16.1 0.00 0.00 0.00 18 1026.4
20260904121605 33 280 3.2 16.1 0.00 0.00 0.00 19 1026.8
20260904120107 32 277 4.8 14.5 0.00 0.00 0.00 19 1026.9
20260904114602 32 0 1.6 11.3 0.00 0.00 0.00 19 1027.1
20260904113107 32 340 1.6 16.1 0.00 0.00 0.00 19 1027.2
20260904111609 32 304 4.8 14.5 0.00 0.00 0.00 20 1027.4
20260904110109 31 307 6.4 14.5 0.00 0.00 0.00 20 1027.4
20260904104603 31 11 8.0 14.5 0.00 0.00 0.00 20 1027.5
20260904103101 31 9 9.7 12.9 0.00 0.00 0.00 20 1027.6
20260904101616 31 285 4.8 9.7 0.00 0.00 0.00 19 1027.6
20260904100104 31 40 0.0 3.2 0.00 0.00 0.00 22 1027.7
20260904094601 30 0 1.6 3.2 0.00 0.00 0.00 22 1027.8
20260904093117 28 0 0.0 0.0 0.00 0.00 0.00 24 1027.8
20260904091604 27 0 0.0 1.6 0.00 0.00 0.00 28 1027.8
20260904090104 25 0 0.0 0.0 0.00 0.00 0.00 32 1027.6
20260904084602 24 0 0.0 1.6 0.00 0.00 0.00 39 1027.6
20260904083110 22 0 0.0 1.6 0.00 0.00 0.00 41 1027.6
20260904081602 20 52 0.0 1.6 0.00 0.00 0.00 44 1027.6
20260904080105 19 0 0.0 1.6 0.00 0.00 0.00 47 1027.4
20260904074603 17 53 0.0 1.6 0.00 0.00 0.00 49 1027.4
20260904073105 17 68 0.0 3.2 0.00 0.00 0.00 49 1027.4
20260904071600 17 0 0.0 0.0 0.00 0.00 0.00 48 1027.4
20260904070059 15 0 0.0 0.0 0.00 0.00 0.00 52 1027.4
20260904064605 14 0 0.0 0.0 0.00 0.00 0.00 54 1027.4
20260904063103 13 0 0.0 1.6 0.00 0.00 0.00 55 1027.3
20260904061615 13 0 0.0 1.6 0.00 0.00 0.00 57 1027.3
20260904060103 12 0 0.0 1.6 0.00 0.00 0.00 58 1027.1
20260904054608 12 0 0.0 1.6 0.00 0.00 0.00 57 1027.0
20260904053106 12 0 0.0 0.0 0.00 0.00 0.00 56 1026.9
20260904051605 12 0 0.0 0.0 0.00 0.00 0.00 55 1027.0